Tracking 30701 objects as of 14-Jun-2025
HD Live streaming from Space Station
objects crossing your sky now

STARLINK-5031

Track STARLINK-5031 now!
10-day predictions
STARLINK-5031 is classified as:


NORAD ID: 53889
Int'l Code: 2022-119D
Perigee: 545.8 km
Apogee: 548.1 km
Inclination: 53.2 °
Period: 95.4 minutes
Semi major axis: 6917 km
RCS: Unknown
Launch date: September 24, 2022
Source: United States (US)
Launch site: AIR FORCE EASTERN TEST RANGE (AFETR)
Your satellite tracking list
Your tracking list is empty




NASA's NSSDC Master Catalog

Two Line Element Set (TLE):
1 53889U 22119D   25165.49163604 -.00005682  00000-0 -33927-3 0  9990
2 53889  53.2180  88.2576 0001635  90.7947 269.3232 15.08827876151197
Source of the keplerian elements: AFSPC